When you browse on this site, cookies collect data to enhance your experience and personalize the content and advertising you see.
Visit our Privacy Policy to learn more. By continuing to use the site, you agree to this use of cookies and data.
  • In Österreich
  • Länderverzeichnis
  • Für 7 Tage
  • Wassertemperatur
  • Wetterkarte
  • News
  • Widgets
  • user-avatar
    Anmelden

    Stündliche Wetter San Miguel de Tucumán

    Heute, 15 Dezember, Sonntag

    Zeit Temperatur Niederschläge Wind Luftdruck Luftfeuchtigkeit
    00:00 +28°C° 0 mm 2 m/S 713 mmHg 61%
    01:00 +28°C° 0 mm 1 m/S 713 mmHg 62%
    02:00 +27°C° 0 mm 1 m/S 712 mmHg 65%
    03:00 +26°C° 0.2 mm 2 m/S 713 mmHg 72%
    04:00 +25°C° 0.2 mm 4 m/S 713 mmHg 79%
    05:00 +23°C° 0.2 mm 5 m/S 714 mmHg 86%
    06:00 +23°C° 1.7 mm 4 m/S 715 mmHg 89%
    07:00 +23°C° 1.7 mm 4 m/S 716 mmHg 93%
    08:00 +22°C° 0 mm 3 m/S 718 mmHg 89%
    09:00 +21°C° 1 mm 3 m/S 718 mmHg 91%
    10:00 +21°C° 1 mm 2 m/S 719 mmHg 92%
    11:00 +20°C° 1 mm 2 m/S 719 mmHg 94%
    12:00 +23°C° 0 mm 1 m/S 719 mmHg 84%
    13:00 +25°C° 0 mm 1 m/S 718 mmHg 74%
    14:00 +27°C° 0 mm 1 m/S 718 mmHg 64%
    15:00 +28°C° 0 mm 1 m/S 718 mmHg 60%
    16:00 +29°C° 0 mm 1 m/S 717 mmHg 57%
    17:00 +29°C° 0 mm 1 m/S 717 mmHg 53%
    18:00 +28°C° 0 mm 1 m/S 717 mmHg 58%
    19:00 +26°C° 0 mm 1 m/S 717 mmHg 64%
    20:00 +25°C° 0 mm 1 m/S 717 mmHg 69%
    21:00 +24°C° 0 mm 1 m/S 718 mmHg 69%
    22:00 +24°C° 0 mm 1 m/S 718 mmHg 69%
    23:00 +24°C° 0 mm 1 m/S 718 mmHg 69%

    Morgen, 16 Dezember, Montag

    Zeit Temperatur Niederschläge Wind Luftdruck Luftfeuchtigkeit
    00:00 +24°C° 0 mm 1 m/S 718 mmHg 68%
    01:00 +24°C° 0 mm 1 m/S 718 mmHg 66%
    02:00 +24°C° 0 mm 1 m/S 718 mmHg 64%
    03:00 +24°C° 0 mm 1 m/S 718 mmHg 66%
    04:00 +24°C° 0 mm 1 m/S 717 mmHg 67%
    05:00 +23°C° 0 mm 1 m/S 717 mmHg 68%
    06:00 +24°C° 0.1 mm 1 m/S 718 mmHg 68%
    07:00 +25°C° 0.1 mm 1 m/S 718 mmHg 67%
    08:00 +26°C° 0.1 mm 1 m/S 719 mmHg 67%
    09:00 +26°C° 0.4 mm 1 m/S 719 mmHg 65%
    10:00 +27°C° 0.4 mm 1 m/S 719 mmHg 63%
    11:00 +28°C° 0.4 mm 2 m/S 718 mmHg 61%
    12:00 +29°C° 0.1 mm 2 m/S 718 mmHg 55%
    13:00 +30°C° 0.1 mm 3 m/S 717 mmHg 49%
    14:00 +31°C° 0.1 mm 3 m/S 717 mmHg 42%
    15:00 +29°C° 0.1 mm 3 m/S 716 mmHg 49%
    16:00 +27°C° 0.1 mm 2 m/S 716 mmHg 56%
    17:00 +26°C° 0.1 mm 2 m/S 715 mmHg 63%
    18:00 +24°C° 0.6 mm 2 m/S 716 mmHg 72%
    19:00 +22°C° 0.6 mm 3 m/S 717 mmHg 81%
    20:00 +20°C° 0.6 mm 3 m/S 718 mmHg 90%
    21:00 +20°C° 0.7 mm 2 m/S 719 mmHg 91%
    22:00 +20°C° 0.7 mm 2 m/S 719 mmHg 92%
    23:00 +20°C° 0.7 mm 1 m/S 720 mmHg 93%

    übermorgen, 17 Dezember, Dienstag

    Zeit Temperatur Niederschläge Wind Luftdruck Luftfeuchtigkeit
    00:00 +20°C° 0.1 mm 1 m/S 720 mmHg 92%
    01:00 +20°C° 0.1 mm 1 m/S 720 mmHg 90%
    02:00 +20°C° 0.1 mm 1 m/S 719 mmHg 89%
    03:00 +20°C° 0 mm 1 m/S 719 mmHg 89%
    04:00 +20°C° 0 mm 1 m/S 719 mmHg 89%
    05:00 +17°C° 0 mm 0 m/S 718 mmHg 89%
    06:00 +21°C° 0 mm 1 m/S 719 mmHg 83%
    07:00 +23°C° 0 mm 1 m/S 719 mmHg 76%
    08:00 +24°C° 0 mm 1 m/S 720 mmHg 69%
    09:00 +27°C° 0 mm 1 m/S 720 mmHg 60%
    10:00 +29°C° 0 mm 2 m/S 720 mmHg 51%
    11:00 +31°C° 0 mm 2 m/S 720 mmHg 42%
    12:00 +32°C° 0 mm 2 m/S 719 mmHg 40%
    13:00 +34°C° 0 mm 2 m/S 718 mmHg 38%
    14:00 +35°C° 0 mm 2 m/S 717 mmHg 36%
    15:00 +35°C° 0 mm 2 m/S 717 mmHg 36%
    16:00 +35°C° 0 mm 2 m/S 716 mmHg 36%
    17:00 +34°C° 0 mm 3 m/S 716 mmHg 36%
    18:00 +32°C° 0 mm 2 m/S 716 mmHg 40%
    19:00 +30°C° 0 mm 2 m/S 716 mmHg 44%
    20:00 +28°C° 0 mm 1 m/S 716 mmHg 49%
    21:00 +28°C° 0 mm 1 m/S 717 mmHg 49%
    22:00 +27°C° 0 mm 1 m/S 717 mmHg 50%
    23:00 +27°C° 0 mm 1 m/S 718 mmHg 50%

    18 Dezember, Mittwoch

    Zeit Temperatur Niederschläge Wind Luftdruck Luftfeuchtigkeit
    00:00 +26°C° 0 mm 1 m/S 717 mmHg 51%
    01:00 +26°C° 0 mm 1 m/S 717 mmHg 52%
    02:00 +26°C° 0 mm 1 m/S 717 mmHg 53%
    03:00 +25°C° 0 mm 1 m/S 717 mmHg 56%
    04:00 +24°C° 0 mm 1 m/S 716 mmHg 60%
    05:00 +23°C° 0 mm 1 m/S 716 mmHg 63%
    06:00 +25°C° 0 mm 1 m/S 717 mmHg 58%
    07:00 +26°C° 0 mm 1 m/S 717 mmHg 53%
    08:00 +28°C° 0 mm 1 m/S 718 mmHg 48%
    09:00 +30°C° 0 mm 1 m/S 718 mmHg 44%
    10:00 +32°C° 0 mm 1 m/S 717 mmHg 39%
    11:00 +35°C° 0 mm 2 m/S 717 mmHg 35%
    12:00 +36°C° 0 mm 2 m/S 717 mmHg 33%
    13:00 +37°C° 0 mm 2 m/S 716 mmHg 32%
    14:00 +39°C° 0 mm 2 m/S 715 mmHg 30%
    15:00 +38°C° 0 mm 2 m/S 715 mmHg 30%
    16:00 +38°C° 0 mm 2 m/S 714 mmHg 31%
    17:00 +38°C° 0 mm 3 m/S 714 mmHg 31%
    18:00 +35°C° 0 mm 2 m/S 714 mmHg 37%
    19:00 +32°C° 0 mm 2 m/S 714 mmHg 43%
    20:00 +30°C° 0 mm 2 m/S 714 mmHg 49%
    21:00 +29°C° 0 mm 2 m/S 715 mmHg 50%
    22:00 +29°C° 0 mm 2 m/S 715 mmHg 51%
    23:00 +28°C° 0 mm 2 m/S 715 mmHg 52%

    19 Dezember, Donnerstag

    Zeit Temperatur Niederschläge Wind Luftdruck Luftfeuchtigkeit
    00:00 +27°C° 0 mm 2 m/S 715 mmHg 52%
    01:00 +27°C° 0 mm 1 m/S 714 mmHg 53%
    02:00 +26°C° 0 mm 1 m/S 714 mmHg 54%
    03:00 +26°C° 0 mm 1 m/S 714 mmHg 56%
    04:00 +25°C° 0 mm 1 m/S 714 mmHg 58%
    05:00 +24°C° 0 mm 1 m/S 714 mmHg 60%
    06:00 +27°C° 0 mm 1 m/S 714 mmHg 54%
    07:00 +29°C° 0 mm 1 m/S 715 mmHg 49%
    08:00 +31°C° 0 mm 1 m/S 715 mmHg 43%
    09:00 +34°C° 0 mm 2 m/S 715 mmHg 38%
    10:00 +36°C° 0 mm 2 m/S 715 mmHg 33%
    11:00 +39°C° 0 mm 2 m/S 715 mmHg 28%
    12:00 +40°C° 0 mm 2 m/S 714 mmHg 26%
    13:00 +42°C° 0 mm 3 m/S 714 mmHg 25%
    14:00 +43°C° 0 mm 3 m/S 713 mmHg 23%
    15:00 +43°C° 0 mm 3 m/S 713 mmHg 23%
    16:00 +43°C° 0 mm 3 m/S 712 mmHg 24%
    17:00 +42°C° 0 mm 4 m/S 712 mmHg 25%
    18:00 +39°C° 0 mm 3 m/S 712 mmHg 30%
    19:00 +36°C° 0 mm 3 m/S 712 mmHg 35%
    20:00 +34°C° 0 mm 3 m/S 713 mmHg 40%
    21:00 +33°C° 0 mm 3 m/S 713 mmHg 41%
    22:00 +31°C° 0 mm 2 m/S 713 mmHg 42%
    23:00 +31°C° 0 mm 2 m/S 713 mmHg 43%

    20 Dezember, Freitag

    Zeit Temperatur Niederschläge Wind Luftdruck Luftfeuchtigkeit
    00:00 +30°C° 0 mm 2 m/S 713 mmHg 46%
    01:00 +29°C° 0 mm 2 m/S 712 mmHg 49%
    02:00 +28°C° 0 mm 1 m/S 711 mmHg 51%
    03:00 +27°C° 0 mm 1 m/S 711 mmHg 54%
    04:00 +27°C° 0 mm 1 m/S 711 mmHg 57%
    05:00 +26°C° 0 mm 1 m/S 711 mmHg 60%
    06:00 +28°C° 0 mm 1 m/S 712 mmHg 54%
    07:00 +31°C° 0 mm 1 m/S 712 mmHg 47%
    08:00 +33°C° 0 mm 1 m/S 713 mmHg 41%
    09:00 +35°C° 0.4 mm 2 m/S 714 mmHg 41%
    10:00 +35°C° 0.4 mm 4 m/S 714 mmHg 41%
    11:00 +36°C° 0.4 mm 5 m/S 715 mmHg 42%
    12:00 +36°C° 0.5 mm 5 m/S 715 mmHg 41%
    13:00 +36°C° 0.5 mm 6 m/S 715 mmHg 40%
    14:00 +36°C° 0.5 mm 6 m/S 714 mmHg 39%
    15:00 +35°C° 0.5 mm 5 m/S 715 mmHg 45%
    16:00 +33°C° 0.5 mm 4 m/S 715 mmHg 51%
    17:00 +31°C° 0.5 mm 3 m/S 715 mmHg 57%
    18:00 +29°C° 0.3 mm 3 m/S 715 mmHg 65%
    19:00 +27°C° 0.3 mm 3 m/S 716 mmHg 74%
    20:00 +25°C° 0.3 mm 3 m/S 717 mmHg 83%
    21:00 +24°C° 1.4 mm 3 m/S 718 mmHg 86%
    22:00 +23°C° 1.4 mm 2 m/S 718 mmHg 90%
    23:00 +21°C° 1.4 mm 2 m/S 719 mmHg 93%
    Mehr zeigen